STARLINK-30258 (57608 NORAD) Tracking and Keplerian Element Data

This shows tracking and keplerian element data for the satellite.

Feedback or suggestion? Click here.




ElementValue
Catalog57608
NameSTARLINK-30258
Epoch Orbit376
Epoch Day239.16667824
Epoch Year2023
RAAN77.734
Inclination43.0008
Eccentricity0.0002415
Argument of Perigee171.296
Mean Anonmoly85.8772
Mean Motion15.74509313
Decay Rate-0.00847877
L11 57608U 23119G 23239.16667824 -.00847877 00000+0 -62370-2 0 9993
L22 57608 43.0008 77.7340 0002415 171.2960 85.8772 15.74509313 3760



Live tracking and technical data element details for STARLINK-30258 (NORAD 57608). STARLINK-30258 can be tracked NOW for your location showing map with azimuth and elevation plus other details from your city location.







IsCatalogInMostPopularTable: catalog: 57608, numindb: 5
Update: records affected: 1



GetName: 57608 STARLINK-30258

Hit Count: updated at: Tue, 26 Sep 2023 12:27:34 GMT